Regional Weather Roundup
Issued by NWS Newport/Morehead, NC

Home | Current Version | Previous Version | Text Only | Print | Product List | Glossary On
Versions: 1 2 3 4 5 6 7 8 9 10 11 12 13 14 15 16 17 18 19 20 21 22 23 24 25 26 27 28 29 30 31 32 33 34 35 36 37 38 39 40 41 42 43 44 45 46 47 48 49 50
000
ASUS42 KMHX 280024
RWRMHX
WEATHER ROUNDUP FOR EASTERN NORTH CAROLINA
NATIONAL WEATHER SERVICE NEWPORT/MOREHEAD CITY NC
800 PM EDT MON APR 27 2015

NOTE: "FAIR" INDICATES FEW OR NO CLOUDS BELOW 12,000 FEET
WITH NO SIGNIFICANT WEATHER AND/OR OBSTRUCTIONS TO VISIBILITY

NCZ015>017-031-032-045>047-102-103-280100-
NORTH COAST

CITY           SKY/WX    TMP DP  RH WIND       PRES   REMARKS
EDENTON        CLOUDY    57  46  67 E5        29.81R
ELIZABETH CITY CLOUDY    56  42  59 E3        29.81R
KITTY HAWK     PTCLDY    52  43  71 CALM      29.79R
MANTEO         PTCLDY    53  39  60 NE6       29.82R

$$

NCZ045>047-081-094-103-104-280100-
CENTRAL COAST

CITY           SKY/WX    TMP DP  RH WIND       PRES   REMARKS
FRISCO         PTCLDY    51  38  60 NE7       29.80R
SWANQUARTER      N/A     57 N/A N/A E3G9      29.79R

$$

NCZ095-097-098-100-101-280100-
SOUTHERN COAST

CITY           SKY/WX    TMP DP  RH WIND       PRES   REMARKS
BEAUFORT       PTCLDY    64  44  48 NW10      29.81R
CEDAR ISLAND     N/A     61 N/A N/A NE12      29.85R
JACKSONVILLE   PTCLDY    62  38  40 NW7       29.82R
PINEY ISLAND   MOCLDY   N/A N/A N/A NW9       29.81R
WILMINGTON     PTCLDY    64  43  46 N6        29.82R


$$

NCZ011>013-027>030-043-044-078>080-089-090>093-098-280100-
COASTAL PLAIN

CITY           SKY/WX    TMP DP  RH WIND       PRES   REMARKS
AHOSKIE        PTCLDY    56  40  54 N5          N/A
CLINTON        MOCLDY    60  49  68 CALM      29.84R
ELIZABETHTOWN  MOCLDY    63  42  46 NW3       29.83S
GOLDSBORO      PTCLDY    64  38  37 NW6       29.81R
GREENVILLE     MOCLDY    63  37  39 NW6       29.85R
HAVELOCK       PTCLDY    64  36  35 NW8       29.82R
KENANSVILLE    MOCLDY    58  44  59 CALM      29.83S
KINSTON        PTCLDY    61  39  44 CALM      29.83R
NEW BERN       PTCLDY    63  37  38 W3        29.83R
RICHLANDS      PTCLDY    57  43  58 CALM      29.83S
ROCKY MOUNT    CLOUDY    62  37  39 N6        29.83R
WASHINGTON       N/A     60  38  44 NW5       29.83R
WHITEVILLE     MOCLDY    61  46  57 CALM      29.83R

$$

AMZ130-135-150-152-154-156-158-170-250-252-270-ANZ085-086-088-633-658-670-280100-
MARINE OBSERVATIONS

STATION/POSITION TIME  TEMP    WIND        PRES    WAVE   SWELL
                       AIR SEA DIR/SP/G            HT/PER HT/PER
                 (UTC) (F)     (DEG/KT/KT) (MB)    (FT/S) (FT/S)
CHESAPEAKE LIGHT 0000   52     320/  5/  6 1009.7
64 E VA BEACH    2350   55 55  340/  8/ 10 1007.8    2/ 7   2/ 7
DUCK             0000   53 56   90/  3/  4 1008.3
2 E DUCK         2311      54                N/A     2/ 8
OREGON INLET     0000   54 58   50/  6/  8 1009.0
13E OREGON INLT  NOT AVBL
HATTERAS CG      2300           50/ 11/ 19 1007.8
DIAMOND BUOY     2350   62 74   30/ 16/ 21 1008.2    3/ 8   3/ 8
CAPE LOOKOUT     0000   64     290/  9/ 11 1008.9
BEAUFORT LAB     2300   67 62  340/  6/  8 1007.2
27 SE WRIGHTSVLE 0000   63 73  260/ 12/ 14   N/A
5 SE WRIGHTSVLE  2308   64 65  220/ 14/ 17 1009.3
225 S CAPE HAT   2350   67 71  360/ 14/ 16 1008.6    5/ 8   3/ 8
41 SE CHARLESTON 2350   65 71  190/  2/  4 1010.2    3/ 5   2/ 5

$$



USA.gov is the U.S. government's official web portal to all federal, state and local government web resources and services.